Fort Wayne, IN

6:47 PM EDT on March 28, 2017 (GMT -0400)
Fort Wayne International

Weather History for KFWA - May, 2013

Change the Weather History Date:

Friday, May 24, 2013

  Actual Average Record
Temperature  
Mean Temperature 54 °F 63 °F  
Max Temperature 65 °F 74 °F 91 °F (2007)
Min Temperature 42 °F 52 °F 36 °F (1963)
Degree Days  
Heating Degree Days 11 4  
Month to date heating degree days 86 167  
Since 1 July heating degree days 5956 6049  
Cooling Degree Days 0 2  
Month to date cooling degree days 69 29  
Year to date cooling degree days 69 37  
Growing Degree Days 3 (Base 50)    
Moisture  
Dew Point 39 °F    
Average Humidity 62    
Maximum Humidity 92    
Minimum Humidity 31    
Precipitation  
Precipitation 0.00 in 0.15 in 1.46 in (1971)
Month to date precipitation 0.53 3.12  
Year to date precipitation 15.26 13.65  
Snow  
Snow 0.00 in 0.00 in T in (1925)
Month to date snowfall 0.0 0.0  
Since 1 July snowfall 38.5 33.5  
Snow Depth 0.00 in    
Sea Level Pressure  
Sea Level Pressure 30.30 in    
Wind  
Wind Speed 8 mph (NNW)    
Max Wind Speed 18 mph    
Max Gust Speed 24 mph    
Visibility 10 miles    
Events      
T = Trace of Precipitation, MM = Missing Value Source: NWS Daily Summary

Daily Weather History Graph

Daily Weather History Graph

Search for Another Location

Airport or City:

Trip Planner

Search our weather history database for the weather conditions in past years. The results will help you decide how hot, cold, wet, or windy it might be!

Date:

Astronomy

May. 24, 2013 Rise Set
Actual Time 6:15 AM EDT 9:00 PM EDT
Civil Twilight 5:43 AM EDT 9:32 PM EDT
Nautical Twilight 5:02 AM EDT 10:13 PM EDT
Astronomical Twilight 4:16 AM EDT 10:59 PM EDT
Moon 8:41 PM EDT (5/24) 5:47 AM EDT (5/24)
Length of Visible Light 15h 49m
Length of Day
14h 45m
Full, 100% of the Moon is Illuminated
May 24
Full
May 25
Full
May 31
Last Quarter
Jun 8
New
Jun 16
First Quarter

Hourly Weather History & Observations

Time (EDT) Temp. Windchill Dew Point Humidity Pressure Visibility Wind Dir Wind Speed Gust Speed Precip Events Conditions
12:54 AM 50.0 °F - 45.0 °F 83% 30.18 in 10.0 mi North 12.7 mph - 0.00 in   Overcast
1:54 AM 48.9 °F - 42.1 °F 77% 30.19 in 10.0 mi NNE 13.8 mph - N/A   Overcast
2:54 AM 48.9 °F - 42.1 °F 77% 30.20 in 10.0 mi NNE 10.4 mph - N/A   Mostly Cloudy
3:54 AM 46.0 °F 43.1 °F 41.0 °F 83% 30.23 in 10.0 mi NNW 5.8 mph - N/A   Mostly Cloudy
4:54 AM 45.0 °F 43.5 °F 42.1 °F 90% 30.25 in 10.0 mi NNW 3.5 mph - N/A   Scattered Clouds
5:54 AM 44.1 °F 39.0 °F 39.0 °F 82% 30.25 in 10.0 mi North 9.2 mph - N/A   Scattered Clouds
6:54 AM 43.0 °F 38.2 °F 37.9 °F 82% 30.28 in 10.0 mi NNW 8.1 mph - N/A   Partly Cloudy
7:54 AM 45.0 °F 39.7 °F 37.9 °F 76% 30.31 in 10.0 mi NNW 10.4 mph - N/A   Partly Cloudy
8:54 AM 46.9 °F - 37.9 °F 71% 30.34 in 10.0 mi North 9.2 mph - N/A   Partly Cloudy
9:54 AM 50.0 °F - 39.9 °F 68% 30.35 in 10.0 mi NNW 9.2 mph - N/A   Scattered Clouds
10:54 AM 53.1 °F - 39.0 °F 59% 30.36 in 10.0 mi NW 10.4 mph - N/A   Scattered Clouds
11:54 AM 55.0 °F - 39.0 °F 55% 30.36 in 10.0 mi NW 13.8 mph 24.2 mph N/A   Partly Cloudy
12:54 PM 57.0 °F - 37.9 °F 49% 30.36 in 10.0 mi North 11.5 mph 18.4 mph N/A   Partly Cloudy
1:54 PM 57.9 °F - 37.0 °F 46% 30.35 in 10.0 mi NNW 6.9 mph - N/A   Clear
2:54 PM 62.1 °F - 39.0 °F 43% 30.35 in 10.0 mi NNW 13.8 mph 17.3 mph N/A   Clear
3:54 PM 63.0 °F - 36.0 °F 37% 30.34 in 10.0 mi NNW 13.8 mph 17.3 mph N/A   Clear
4:54 PM 64.0 °F - 37.0 °F 37% 30.32 in 10.0 mi North 9.2 mph 18.4 mph N/A   Clear
5:54 PM 64.0 °F - 36.0 °F 35% 30.32 in 10.0 mi NNW 10.4 mph - N/A   Clear
6:54 PM 64.0 °F - 34.0 °F 33% 30.30 in 10.0 mi NNW 8.1 mph - N/A   Clear
7:54 PM 62.1 °F - 36.0 °F 38% 30.29 in 10.0 mi NNW 5.8 mph - N/A   Partly Cloudy
8:54 PM 57.9 °F - 36.0 °F 44% 30.29 in 10.0 mi NW 3.5 mph - N/A   Clear
9:54 PM 53.1 °F - 37.9 °F 57% 30.31 in 10.0 mi Calm Calm - N/A   Scattered Clouds
10:54 PM 48.9 °F - 39.9 °F 71% 30.33 in 10.0 mi NW 3.5 mph - N/A   Clear
11:54 PM 46.9 °F - 41.0 °F 80% 30.35 in 10.0 mi NNW 5.8 mph - N/A   Clear